This demonstration page uses our WeatherBlox Daily Observations layout. Learn more.

Left ArrowRight Arrow

38.20091, -84.87328

Hourly Observations for February 21, 2018

Temp ( °F °C ) Dew Point ( °F °C ) Humidity (%) Winds ( mph kmh ) Pressure ( in mb ) Visibility ( mi km ) Precip ( " mm )
12:53 am 00:53 Clear 67 19.4 56 13.3 68 68 S 13 20 30.11 1020 10 16 0.00 0.00
1:53 am 01:53 Clear 67 19.4 56 13.3 68 68 S 13 20 30.11 1020 10 16 0.00 0.00
2:53 am 02:53 Clear 69 20.6 57 13.9 66 66 S 15 24 30.10 1019 10 16 0.00 0.00
3:53 am 03:53 Clear 70 21.1 58 14.4 66 66 SSW 22 35 30.11 1020 10 16 0.00 0.00
4:53 am 04:53 Mostly Clear 70 21.1 58 14.4 66 66 SSW 15 24 30.11 1020 10 16 0.00 0.00
5:53 am 05:53 Cloudy 70 21.1 59 15 68 68 SSW 14 22 30.14 1021 10 16 0.00 0.00
6:26 am 06:26 Cloudy 64 17.8 55 12.8 73 73 NNW 14 22 30.18 1022 9 14 0.00 0.00
6:53 am 06:53 Cloudy with Light Rain 61 16.1 54 12.2 78 78 NNW 10 17 30.19 1022 6 10 0.04 1.02
7:53 am 07:53 Cloudy 59 15 55 12.8 87 87 NW 13 20 30.25 1025 10 16 0.03 0.76
8:06 am 08:06 Cloudy with Rain 59 15 54 12.2 83 83 NNW 9 15 30.27 1025 4 6 0.02 0.51
8:53 am 08:53 Cloudy 58 14.4 54 12.2 87 87 undefined N/A 30.26 1025 10 16 0.09 2.29
9:53 am 09:53 Cloudy with Light Rain 59 15 54 12.2 83 83 N 6 9 30.29 1026 10 16 0.00 0.03
10:33 am 10:33 Cloudy 59 15 55 12.8 87 87 N 3 6 30.33 1027 10 16 0.00 0.03
10:48 am 10:48 Cloudy 61 16 55 13 83 83 N 5 7 30.33 1027 10 16 0.00 0.03
10:53 am 10:53 Cloudy 60 15.6 55 12.8 84 84 NNW 6 9 30.33 1027 10 16 0.00 0.03
11:51 am 11:51 Cloudy 59 15 55 13 88 88 WNW 3 6 30.39 1029 10 16 0.01 0.25
11:53 am 11:53 Cloudy 59 15 55 12.8 87 87 NW 5 7 30.37 1028 10 16 0.01 0.25
12:16 pm 12:16 Cloudy with Light Rain 59 15 55 12.8 87 87 N 7 11 30.36 1028 6 10 0.00 0.03
12:53 pm 12:53 Cloudy 60 15.6 55 12.8 84 84 N 3 6 30.35 1028 10 16 0.01 0.25
1:02 pm 13:02 Cloudy 60 15.6 55 12.8 84 84 NNE 5 7 30.36 1028 10 16 0.00 0.00
1:43 pm 13:43 Cloudy 60 15.6 55 12.8 84 84 NNE 3 6 30.36 1028 10 16 0.00 0.03
1:53 pm 13:53 Cloudy with Light Rain 59 15 54 12.2 83 83 NNW 7 11 30.35 1028 6 10 0.00 0.03
1:56 pm 13:56 Cloudy with Light Rain 58 14.4 54 12.2 87 87 NNW 9 15 30.36 1028 5 8 0.00 0.03
2:16 pm 14:16 Cloudy 56 13.3 53 11.7 90 90 NNW 8 13 30.36 1028 10 16 0.01 0.25
2:53 pm 14:53 Cloudy 55 12.8 51 10.6 87 87 N 10 17 30.33 1027 10 16 0.01 0.25
3:37 pm 15:37 Cloudy with Rain 52 11.1 49 9.4 89 89 NNW 7 11 30.39 1029 3 4 0.05 1.27
3:53 pm 15:53 Cloudy with Rain 52 11.1 49 9.4 89 89 NNW 9 15 30.36 1028 4 6 0.07 1.78
4:00 pm 16:00 Cloudy with Rain 52 11.1 48 8.9 86 86 NNW 8 13 30.42 1030 3 4 0.02 0.51
4:12 pm 16:12 Cloudy with Light Rain 52 11.1 49 9.4 89 89 NNE 6 9 30.39 1029 5 8 0.03 0.76
4:53 pm 16:53 Cloudy with Light Rain 51 10.6 47 8.3 86 86 NNW 8 13 30.38 1029 3 5 0.06 1.52
5:26 pm 17:26 Cloudy with Light Rain 50 10 47 8.3 89 89 N 6 9 30.42 1030 4 6 0.02 0.51
5:53 pm 17:53 Cloudy with Rain 50 10 46 7.8 86 86 N 5 7 30.39 1029 3 4 0.06 1.52
6:02 pm 18:02 Cloudy with Light Rain 50 10 46 7.8 86 86 N 6 9 30.42 1030 5 8 0.01 0.25
6:53 pm 18:53 Cloudy with Light Rain 49 9.4 45 7.2 86 86 N 10 17 30.41 1030 9 14 0.05 1.27
7:53 pm 19:53 Cloudy 48 8.9 45 7.2 89 89 NNE 12 19 30.40 1029 10 16 0.01 0.25
8:53 pm 20:53 Cloudy with Light Rain 48 8.9 44 6.7 86 86 N 8 13 30.42 1030 7 11 0.01 0.25
9:53 pm 21:53 Cloudy with Light Rain 48 8.9 44 6.7 86 86 N 7 11 30.43 1030 9 14 0.04 1.02
10:21 pm 22:21 Cloudy 47 8.3 44 6.7 90 90 N 8 13 30.42 1030 10 16 0.01 0.25
10:51 pm 22:51 Cloudy 46 8 43 6 87 87 NNE 8 13 30.42 1030 10 16 0.01 0.25
10:53 pm 22:53 Cloudy 47 8.3 43 6.1 86 86 NNE 7 11 30.40 1030 10 16 0.01 0.25
11:14 pm 23:14 Cloudy 47 8.3 43 6.1 86 86 NE 8 13 30.42 1030 10 16 0.00 0.00
11:53 pm 23:53 Cloudy 47 8.3 43 6.1 86 86 ENE 9 15 30.36 1028 10 16 0.00 0.00

Powered by AerisWeather